Theta_e
340 351 359 356 355 354 354 354 354 354 353 353 353 353 352 353 353 351 352 353 352 351 347 345 346 346 347 346 347 350 351 349 348 348 348 347 351 348 350 352 358 354 357
345 350 359 358 355 355 355 354 354 353 353 353 352 352 351 352 350 351 352 352 351 348 344 344 345 345 344 342 342 347 346 347 348 346 345 345 345 349 348 346 353 354 356
344 349 353 358 356 355 354 354 353 354 353 353 351 350 350 350 348 348 351 351 350 346 343 343 342 342 341 340 341 345 346 347 348 350 348 339 344 350 349 347 345 351 353
344 345 349 358 358 355 355 355 354 353 352 351 351 350 348 349 349 347 350 349 347 344 343 342 339 340 339 340 340 343 345 345 347 348 332 346 351 353 351 350 347 347 349
340 343 349 358 358 356 354 354 353 353 351 351 350 349 349 349 350 351 350 349 346 343 342 342 340 338 337 338 340 344 345 345 347 334 340 339 345 352 353 353 350 349 346
338 345 356 359 359 358 355 354 354 353 353 351 350 350 350 350 352 351 351 351 350 347 344 345 346 342 337 337 341 343 343 344 338 335 342 347 346 354 353 351 350 350 348
345 349 353 359 359 358 356 355 355 354 354 353 352 351 352 353 353 353 352 351 350 350 350 349 348 344 341 340 339 342 343 341 326 327 332 336 341 349 350 351 351 350 349
347 349 352 358 359 359 358 357 356 355 355 354 353 353 353 353 353 352 352 351 351 353 354 353 350 347 343 341 341 341 342 341 328 326 327 331 343 345 344 345 348 350 348
338 340 343 351 356 359 358 357 357 356 355 355 352 351 353 351 350 349 343 345 347 350 354 353 351 349 345 343 342 342 342 343 324 324 325 326 342 338 338 338 341 343 347
334 338 340 344 350 352 352 358 356 353 353 353 352 352 348 347 348 342 344 343 345 346 351 353 352 351 347 344 343 342 343 342 320 321 323 328 340 336 335 333 334 336 339
333 334 339 338 343 348 348 353 356 351 354 353 351 347 341 339 339 344 343 345 347 349 348 346 348 351 348 345 344 343 343 327 321 322 323 341 340 335 333 331 330 330 333
333 331 335 340 345 344 349 346 346 347 344 340 337 337 336 337 340 342 347 350 348 347 342 341 341 346 348 333 330 339 331 327 323 322 324 340 338 335 333 332 329 329 329
332 333 335 346 346 344 344 344 343 343 341 338 337 337 334 337 336 335 334 337 341 344 342 341 339 338 337 330 329 328 327 325 323 322 331 340 339 335 333 332 330 328 328
334 337 344 345 346 342 343 341 341 339 339 337 335 339 335 333 335 337 337 338 337 338 336 334 331 330 332 332 332 329 328 329 330 326 329 339 340 336 333 332 331 330 330
339 341 342 345 342 342 343 341 340 341 339 333 338 336 334 336 336 337 337 331 333 336 330 328 328 328 332 335 334 331 331 331 329 328 326 333 336 339 335 334 333 331 330
338 337 341 341 341 340 341 339 339 337 337 336 332 330 332 334 334 334 333 331 330 333 333 331 328 333 333 332 330 332 331 329 328 327 327 327 330 333 338 337 334 333 331
339 336 333 333 331 329 334 338 336 339 337 334 335 334 332 332 330 332 330 330 330 332 330 330 331 331 329 330 327 329 329 329 327 325 324 326 327 330 336 340 336 334 333
334 331 330 329 327 326 328 326 325 335 333 332 331 329 327 326 327 326 324 324 324 327 327 325 325 324 324 324 322 324 325 327 327 324 325 325 327 327 326 337 337 337 334
329 329 326 325 324 324 323 324 324 324 331 331 327 324 322 320 322 319 318 320 319 318 320 322 321 321 320 320 321 322 323 324 323 326 323 322 324 324 318 330 329 336 336
328 326 326 324 322 322 322 321 322 321 324 324 321 322 321 319 320 316 315 316 315 315 316 317 315 315 315 315 319 319 318 319 322 323 323 323 322 318 316 318 317 319 326
326 324 323 322 320 319 319 317 317 316 316 320 320 320 319 319 318 315 313 312 313 312 312 313 312 310 309 311 309 309 309 312 311 312 315 315 315 314 314 316 318 318 319
324 323 322 322 321 319 319 316 316 314 314 313 315 315 318 319 317 316 315 313 312 312 311 310 309 308 308 310 306 305 300 303 309 311 311 313 312 315 313 315 316 316 315
322 322 321 320 320 319 317 314 313 314 312 311 315 316 317 319 320 317 315 313 313 311 310 309 309 308 306 308 310 309 302 298 303 307 311 311 310 309 311 313 315 316 316
321 323 322 321 318 320 316 312 310 312 310 311 313 313 314 316 317 317 315 314 312 312 311 310 313 310 308 305 308 312 311 307 301 300 306 309 311 310 310 311 312 314 314
318 320 320 318 317 317 316 314 311 310 311 311 312 311 311 311 313 317 316 314 313 313 312 312 311 310 309 307 306 306 306 306 305 302 299 303 307 309 309 313 310 312 314
317 320 318 316 315 316 313 313 311 309 309 309 310 309 310 310 311 314 316 314 313 312 311 311 311 310 309 309 308 307 305 303 302 302 300 300 301 305 307 310 311 311 311
Wind_Speed
4 10 16 16 14 12 11 10 8 8 7 7 7 7 7 7 7 8 7 7 7 7 8 9 9 9 9 11 11 10 10 10 10 10 9 5 2 5 6 10 13 10 10
15 9 15 15 14 12 11 9 7 7 6 6 6 6 6 5 5 5 5 5 5 5 6 6 7 7 8 9 10 10 11 12 11 9 8 3 3 5 7 9 11 8 10
13 10 11 12 12 10 9 8 7 6 6 6 5 4 4 3 3 3 2 2 3 4 4 4 4 5 6 8 10 10 11 11 12 13 13 4 5 7 7 9 9 9 8
13 7 7 10 9 9 8 6 6 5 4 4 4 4 3 2 1 1 1 1 1 1 2 2 3 3 5 7 10 13 11 14 15 12 7 10 8 8 8 8 9 9 7
12 8 8 11 9 8 6 6 5 4 3 3 4 4 3 2 2 1 2 3 3 2 1 1 1 1 1 4 9 12 16 13 17 9 8 6 5 7 8 7 7 8 9
14 12 14 12 11 11 10 8 7 6 6 5 4 4 3 3 3 3 5 5 6 6 5 5 4 3 2 3 6 10 14 12 10 6 9 9 8 12 12 8 7 6 6
11 11 12 16 15 14 13 11 8 6 4 4 5 5 4 4 5 5 6 7 9 9 9 7 5 6 5 4 6 9 12 10 6 5 3 6 8 13 13 11 9 6 3
9 10 12 17 15 12 11 11 10 9 10 9 7 7 7 7 6 6 6 9 11 11 11 9 6 7 7 6 7 10 13 10 7 6 1 6 10 12 12 10 9 8 4
12 11 9 4 12 12 10 9 11 11 10 9 6 9 7 8 7 1 4 8 11 13 13 10 9 10 10 9 10 11 14 13 5 4 5 4 12 13 10 8 8 7 7
10 7 4 6 3 6 6 12 10 6 7 6 8 10 4 2 4 9 11 13 17 17 14 10 11 12 12 12 11 12 14 13 7 5 4 4 13 14 10 7 5 5 5
7 7 9 15 7 6 6 7 8 9 10 9 10 7 4 3 5 8 8 17 20 13 8 7 13 17 15 14 11 12 16 3 2 5 3 13 14 14 10 6 4 3 5
2 8 9 11 7 5 7 6 6 7 5 5 5 5 4 5 5 8 12 18 19 13 6 10 23 19 16 5 3 11 5 4 3 5 4 13 13 12 10 7 2 1 3
3 8 12 8 7 6 3 4 3 4 3 4 3 3 3 5 4 4 4 5 5 11 5 9 11 8 7 3 4 5 5 4 4 4 7 13 12 12 9 7 5 3 2
9 6 6 7 6 6 3 4 2 1 3 7 3 4 2 3 3 7 3 4 5 3 6 8 4 6 6 5 5 6 6 5 6 3 3 6 9 10 10 8 6 5 4
8 7 6 7 7 6 5 4 5 5 7 12 5 3 2 2 5 4 4 3 3 5 3 3 4 3 3 5 4 4 5 3 5 4 3 14 16 9 8 9 9 7 5
7 8 9 11 11 12 8 7 6 6 3 3 3 1 3 3 4 5 7 5 6 3 5 5 4 4 3 4 3 5 2 4 4 4 3 4 9 20 20 13 9 7 6
10 12 14 14 14 13 12 10 5 5 4 5 6 7 7 7 5 6 8 7 5 5 1 3 1 3 3 2 3 5 6 7 4 6 5 5 4 17 22 18 11 10 10
10 12 13 13 15 14 12 9 9 5 3 4 5 5 8 10 10 8 8 7 9 5 3 3 3 3 1 3 4 4 4 3 8 4 3 5 6 7 6 6 10 12 12
10 10 12 11 13 13 13 11 11 12 6 7 7 6 11 12 11 8 5 5 7 5 6 4 2 2 2 3 4 5 4 5 6 5 6 5 6 7 1 4 6 7 7
9 8 7 8 11 10 9 10 9 9 7 6 5 4 7 5 7 6 6 6 6 6 7 6 5 4 2 3 4 5 5 4 3 4 7 7 6 3 3 3 3 2 2
7 7 6 7 7 7 8 8 8 7 4 4 5 7 5 5 7 7 5 5 5 5 5 6 3 4 4 5 4 5 5 4 4 5 3 3 1 2 4 4 3 2 2
7 6 7 7 7 7 5 5 3 4 3 3 4 9 9 8 8 6 5 6 6 5 6 6 5 3 3 4 2 1 4 5 5 5 2 2 2 2 3 4 3 1 2
7 6 7 7 7 8 7 5 5 5 4 5 9 8 8 9 7 6 6 6 6 5 5 5 5 6 3 4 5 1 3 2 3 3 5 4 4 2 2 2 2 3 4
6 7 8 8 8 8 7 6 8 8 6 5 6 5 5 7 8 7 6 7 6 4 6 5 5 3 3 4 4 3 1 3 1 4 4 3 4 3 5 4 4 4 4
7 8 7 7 8 8 8 7 5 7 3 5 5 8 8 6 6 10 8 7 6 5 5 6 6 5 2 1 1 2 2 2 1 2 3 4 4 4 4 4 4 4 5
7 11 6 7 7 8 7 7 8 8 7 6 6 5 5 5 5 6 8 6 6 6 6 5 5 6 5 4 2 2 1 2 2 1 1 2 3 3 1 3 5 4 5
Wind_Direction
132 142 133 131 130 128 125 120 114 108 101 94 89 86 82 74 71 67 63 56 57 56 56 52 45 38 30 21 12 2 356 353 358 358 353 356 38 48 59 59 100 81 77
135 145 140 138 138 137 134 128 122 115 109 105 102 102 101 96 90 81 79 82 82 75 59 44 38 33 33 23 5 355 350 344 348 348 336 320 177 94 69 69 86 85 77
132 141 142 139 139 135 131 129 129 126 123 119 111 100 87 76 81 83 74 77 101 103 87 74 55 51 35 12 354 344 344 344 344 353 319 196 145 115 90 77 78 81 73
129 130 125 137 135 137 136 135 136 135 131 127 132 139 142 137 105 50 14 5 1 103 107 83 68 48 24 359 347 333 343 341 347 3 8 105 122 119 97 79 74 79 84
128 130 147 147 142 144 148 146 148 150 156 170 176 183 185 177 194 232 280 287 288 277 274 238 241 116 359 348 337 330 328 351 355 78 66 66 86 95 85 66 106 78 74
148 140 149 153 159 165 168 168 180 186 186 199 203 208 210 197 216 239 258 269 274 267 251 216 222 231 243 304 319 319 318 351 19 43 104 102 90 83 73 65 55 69 82
119 130 151 165 175 178 178 179 181 185 224 233 230 221 216 229 228 236 257 265 264 261 256 245 221 212 221 259 291 303 306 331 67 123 106 92 94 91 78 65 57 58 69
110 144 165 178 176 188 180 181 184 182 201 207 228 237 218 225 231 240 256 267 268 264 257 254 241 215 224 243 271 286 293 306 52 122 182 111 105 96 93 81 60 49 59
36 23 320 271 195 170 193 196 189 201 206 203 215 251 233 248 244 174 231 246 248 257 251 238 237 222 220 228 248 268 280 297 106 169 143 128 117 100 81 73 78 56 32
40 350 350 301 224 179 197 212 211 217 248 218 229 230 229 237 180 182 221 236 247 226 234 242 244 234 229 229 239 262 276 300 107 133 155 162 124 104 99 80 36 40 49
75 280 336 315 239 185 187 217 207 228 235 221 226 189 189 240 253 248 253 263 273 251 193 251 276 246 231 232 236 260 278 278 338 152 189 148 118 112 112 102 84 18 340
53 265 280 281 64 107 187 204 205 225 207 214 201 199 237 244 244 245 254 256 264 271 157 193 247 257 233 222 232 258 268 271 263 167 210 136 125 122 128 127 124 317 309
193 267 283 43 40 24 355 199 221 226 210 233 227 223 292 308 291 259 281 299 268 299 242 223 251 254 242 229 227 256 265 260 268 188 168 152 147 141 140 149 163 205 266
236 242 65 53 38 8 353 352 285 240 234 354 5 50 53 281 316 292 260 336 13 33 74 322 347 333 333 318 303 325 311 27 29 28 342 169 168 158 161 178 181 194 223
40 29 60 59 30 4 0 333 319 328 93 81 36 345 71 271 295 316 3 19 19 73 64 274 311 309 249 352 328 3 14 328 109 65 47 42 4 280 199 206 201 204 217
41 24 22 41 17 7 339 335 1 60 77 105 139 161 332 3 349 26 23 17 351 344 183 202 225 250 73 272 145 76 9 293 330 256 61 322 9 303 295 261 229 219 226
47 42 31 26 15 5 353 2 32 77 78 61 61 45 42 41 9 39 27 16 1 7 53 289 308 107 91 137 210 195 217 217 217 237 204 231 227 258 271 256 241 236 233
50 47 35 27 15 7 7 11 15 4 72 81 70 63 60 46 28 32 34 22 3 355 35 25 9 357 318 232 274 273 261 225 243 233 214 219 221 235 255 256 259 244 238
62 53 45 29 22 11 14 11 8 4 39 43 46 45 46 38 34 35 20 13 7 4 357 341 8 352 295 291 252 233 241 225 228 223 225 225 235 242 156 115 72 15 215
76 62 72 44 33 22 25 11 12 13 26 37 32 43 49 41 46 33 18 13 9 12 14 9 13 349 339 344 343 349 308 278 245 207 225 228 214 201 119 80 74 65 59
81 71 62 63 35 37 38 21 16 1 5 5 6 28 24 43 45 40 16 13 16 17 1 3 344 357 350 358 21 333 319 23 57 42 52 105 179 71 106 115 86 84 47
105 93 66 68 51 37 46 18 14 349 6 13 353 9 11 47 48 34 20 1 6 7 357 358 16 347 335 0 353 315 352 335 355 347 330 76 54 40 20 40 81 209 253
102 104 79 63 60 48 44 26 13 354 5 14 21 28 40 44 51 31 13 9 2 4 344 335 350 6 336 332 20 300 356 324 339 326 358 338 311 340 333 338 322 319 258
125 100 79 65 53 59 44 38 38 20 18 359 11 16 359 19 23 17 10 12 10 359 350 332 341 324 3 335 342 13 334 193 222 328 327 349 328 333 343 323 319 339 340
109 97 86 68 54 60 56 48 38 33 20 4 0 11 359 359 12 12 6 359 359 354 343 348 344 349 338 317 287 317 319 307 191 180 275 316 346 341 346 66 54 40 22
87 104 96 80 60 70 71 49 43 34 13 17 2 358 342 344 354 357 357 356 350 351 345 337 334 347 359 353 325 317 211 209 243 214 274 280 250 293 353 45 56 40 23